Left ArrowRight Arrow

34.74481, -87.66753

Hourly Observations for December 6, 2018

Temp ( °F °C ) Dew Point ( °F °C ) Humidity (%) Winds ( mph kmh ) Pressure ( in mb ) Visibility ( mi km ) Precip ( " mm )
12:53 am 00:53 Clear 27 -2.8 23 -5 85 85 Calm 30.41 1030 10 16 0.00 0.00
1:53 am 01:53 Clear 26 -3.3 23 -5 88 88 Calm 30.42 1030 10 16 0.00 0.00
2:53 am 02:53 undefined N/A N/A N/A undefined N/A N/A N/A 0.00 0.00
3:53 am 03:53 Clear 25 -3.9 23 -5 92 92 Calm 30.39 1029 10 16 0.00 0.00
4:53 am 04:53 Clear 27 -2.8 22 -5.6 81 81 Calm 30.38 1029 10 16 0.00 0.00
5:53 am 05:53 Clear 27 -2.8 24 -4.4 89 89 E 3 6 30.40 1029 10 16 0.00 0.00
6:53 am 06:53 Sunny 27 -2.8 23 -5 85 85 Calm 30.42 1030 10 16 0.00 0.00
7:53 am 07:53 Sunny 29 -1.7 25 -3.9 85 85 Calm 30.43 1030 10 16 0.00 0.00
8:53 am 08:53 Sunny 34 1.1 27 -2.8 76 76 Calm 30.44 1031 10 16 0.00 0.00
9:53 am 09:53 Sunny 38 3.3 29 -1.7 70 70 Calm 30.45 1031 10 16 0.00 0.00
10:53 am 10:53 Sunny 43 6.1 31 -0.6 63 63 ESE 6 9 30.41 1030 10 16 0.00 0.00
11:53 am 11:53 Sunny 47 8.3 27 -2.8 46 46 S 5 7 30.39 1029 10 16 0.00 0.00
12:53 pm 12:53 Sunny 51 10.6 23 -5 33 33 SW 12 19 30.33 1027 10 16 0.00 0.00
1:53 pm 13:53 Cloudy 51 10.6 22 -5.6 32 32 SW 8 13 30.32 1027 10 16 0.00 0.00
2:53 pm 14:53 Cloudy 50 10 23 -5 35 35 W 6 9 30.33 1027 10 16 0.00 0.00
3:53 pm 15:53 Cloudy 50 10 25 -3.9 38 38 W 6 9 30.35 1028 10 16 0.00 0.00
4:53 pm 16:53 Cloudy with Light Rain 49 9.4 26 -3.3 41 41 WSW 7 11 30.35 1028 10 16 0.00 0.03
5:53 pm 17:53 Cloudy 48 8.9 27 -2.8 44 44 WSW 7 11 30.36 1028 10 16 0.00 0.03
6:53 pm 18:53 Cloudy 47 8.3 28 -2.2 48 48 WSW 6 9 30.37 1029 10 16 0.00 0.00
7:53 pm 19:53 Cloudy 46 7.8 29 -1.7 51 51 W 5 7 30.38 1029 10 16 0.00 0.00
8:53 pm 20:53 Cloudy 46 7.8 28 -2.2 50 50 W 6 9 30.40 1029 10 16 0.00 0.00
9:53 pm 21:53 Cloudy 46 7.8 30 -1.1 54 54 SW 3 6 30.38 1029 10 16 0.00 0.00
10:53 pm 22:53 Cloudy 46 7.8 31 -0.6 56 56 Calm 30.37 1029 10 16 0.00 0.00
11:53 pm 23:53 Cloudy 45 7.2 31 -0.6 58 58 Calm 30.38 1029 10 16 0.00 0.00

Powered by Vaisala Xweather